[[{"header":{"parameterUnit":"m.s-1","parameterCategory":1,"la1":30.2991,"la2":30.254,"lo1":-89.0895,"lo2":-89.0444,"dy":0.0017,"dx":0.0017,"nx":28,"ny":28,"refTime":"2024-05-23T09:00:00:Z","depth":0,"parameterNumber":2,"parameterNumberName":"U-component_of_WINDS"},"data":[0,0,0,0,0,0,0,0,0,0,0,0,0,0,0,0,0,0,0,0,0,0,0,0,0,0,0,0,0,0,0,0,0,0,0,0,0,0,0,0,0,0,0,0,0,0,0,0,0,0,0,0,0,0,0,0,0,0,0.7786,0.7787,0,0.7874,0.7875,0.7876,0.7894,0.7893,0.7892,0.7892,0.799,0.7993,0.7996,0,0,0,0,0,0,0,0,0,0,0,0,0,0.7639,0.7642,0.7786,0.7787,0.7788,0.7874,0.7875,0.7876,0.7894,0.7893,0.7892,0.7891,0.7989,0.7993,0.7996,0,0,0,0,0,0,0,0,0,0,0,0,0,0.7713,0.7643,0.7786,0.7807,0.781,0.7874,0.7875,0.7877,0.7894,0.7893,0.7892,0.7891,0.7987,0.7992,0.7997,0.8048,0,0,0.8012,0.8014,0,0,0,0,0,0,0,0,0.7709,0.7718,0.7803,0.7806,0.7809,0.7872,0.7859,0.7934,0.7894,0.7862,0.7892,0.789,0.7952,0.796,0.7979,0.8053,0.8057,0.8012,0.8015,0.8017,0.8019,0,0,0,0,0,0,0,0.7704,0.7715,0.7821,0.7804,0.7808,0.7814,0.7824,0.7874,0.7912,0.7865,0.7866,0.7876,0.7953,0.7974,0.7981,0.8058,0.8012,0.8017,0.802,0.8022,0.8179,0.818,0,0,0,0,0,0,0.7694,0.771,0.7818,0.7824,0.7755,0.7818,0.7828,0.7853,0.7912,0.7919,0.7877,0.7877,0.7966,0.7975,0.7985,0.8048,0.8017,0.8022,0.8025,0.8178,0.8179,0.818,0,0,0,0,0,0,0.7691,0.7703,0.7815,0.7767,0.7782,0.7821,0.7849,0.7855,0.7875,0.7921,0.7928,0.789,0.7966,0.7978,0.8032,0.8052,0.8024,0.8029,0.8176,0.8178,0.818,0.8175,0,0,0,0,0,0,0.7686,0.7702,0.772,0.7767,0.7784,0.7858,0.785,0.7857,0.7883,0.7883,0.7935,0.7943,0.7966,0.8024,0.8036,0.8058,0.8032,0.8175,0.8177,0.8179,0.8174,0.8177,0.8179,0,0,0,0,0,0.7681,0.7717,0.7721,0.7734,0.7808,0.7859,0.7869,0.7892,0.7884,0.7904,0.7933,0.7941,0.8047,0.8029,0.8044,0.8067,0.8173,0.8176,0.8179,0.8173,0.8176,0.8179,0,0,0,0,0,0,0.7674,0.7724,0.7729,0.7781,0.7815,0.7862,0.7887,0.7895,0.7935,0.7934,0.7963,0.7975,0.8027,0.8053,0.8032,0.8119,0.811,0.8116,0.8101,0.8104,0.8107,0.81,0.8037,0,0,0,0,0,0.7678,0.7713,0.7756,0.7798,0.7815,0.7848,0.7871,0.7886,0.7924,0.7939,0.7972,0.8011,0.8053,0.808,0.8121,0.8177,0.8189,0.82,0.8203,0.8205,0.821,0.8241,0.8247,0.819,0.819,0.819,0,0,0.7688,0.7719,0.7741,0.7797,0.7826,0.7863,0.786,0.7901,0.7929,0.7946,0.7998,0.8024,0.8069,0.8124,0.815,0.8147,0.8228,0.8209,0.821,0.8214,0.8245,0.825,0.8255,0.8191,0.8191,0.8191,0,0,0.7725,0.7752,0.7789,0.7817,0.7859,0.7881,0.789,0.7935,0.7952,0.8004,0.8017,0.8053,0.8125,0.8156,0.8181,0.8229,0.8238,0.8242,0.8256,0.8286,0.8291,0.8295,0.8312,0.8318,0.8246,0.8246,0.8246,0,0.7732,0.7787,0.7809,0.7847,0.7873,0.7887,0.7926,0.7953,0.8007,0.8025,0.802,0.8109,0.8141,0.8203,0.8214,0.8234,0.8247,0.8236,0.8288,0.8292,0.8297,0.8313,0.832,0.8246,0.8246,0.8246,0.8246,0,0.7795,0.7833,0.7858,0.7907,0.7935,0.7975,0.8003,0.803,0.8042,0.8064,0.8117,0.8155,0.8204,0.822,0.8234,0.8284,0.8281,0.8282,0.8273,0.8302,0.8318,0.8324,0.8246,0.8246,0.8246,0.8246,0,0,0.7831,0.7889,0.7898,0.792,0.7967,0.7998,0.8038,0.8083,0.8105,0.8143,0.8178,0.8237,0.8238,0.8266,0.8284,0.831,0.8345,0.8308,0.8309,0.8313,0.8404,0.8402,0.8409,0.8351,0.8352,0.8353,0.84,0,0.7873,0.7942,0.7962,0.8021,0.8057,0.8071,0.8106,0.814,0.8162,0.8197,0.8223,0.8264,0.8262,0.8279,0.8306,0.8335,0.8364,0.8332,0.8386,0.8388,0.8374,0.8418,0.8417,0.8459,0.8406,0.8407,0.8408,0,0.7932,0.7967,0.8029,0.807,0.8086,0.8117,0.8159,0.8192,0.8231,0.8246,0.8276,0.8291,0.8335,0.8324,0.8386,0.8364,0.8387,0.8405,0.8407,0.8413,0.84,0.8426,0.8473,0.8479,0.8418,0.8417,0.8417,0,0.7951,0.8014,0.8059,0.8078,0.8128,0.8149,0.8171,0.8208,0.8234,0.8272,0.8289,0.8333,0.8357,0.8391,0.8418,0.8407,0.8477,0.8468,0.8492,0.8491,0.8507,0.8505,0.8558,0.8521,0.8521,0.8521,0.8521,0,0.7997,0.8034,0.8069,0.8096,0.8139,0.8162,0.8205,0.8228,0.8261,0.8295,0.831,0.8342,0.8375,0.8412,0.8433,0.8481,0.8492,0.8506,0.8512,0.8505,0.8503,0.8521,0.8519,0.8523,0.8522,0.8522,0.8522,0,0.8026,0.805,0.81,0.8142,0.8154,0.8183,0.822,0.8249,0.8271,0.8313,0.8325,0.8361,0.8405,0.8434,0.8491,0.8506,0.8558,0.8563,0.8544,0.8547,0.8568,0.8566,0.8635,0.8646,0.8601,0.8601,0.8602,0,0.8054,0.8082,0.8126,0.8149,0.817,0.8206,0.8232,0.8256,0.8282,0.8328,0.8351,0.8395,0.8432,0.8502,0.8534,0.8578,0.8584,0.8605,0.8591,0.8583,0.8585,0.8583,0.8586,0.8608,0.8608,0.8609,0.8609,0,0.8099,0.811,0.8144,0.8183,0.8212,0.8244,0.8277,0.8295,0.8325,0.8354,0.8397,0.8426,0.8482,0.8527,0.8573,0.8598,0.8609,0.8613,0.8621,0.8614,0.8602,0.8609,0.855,0.8611,0.8611,0.8611,0.8611,0.8611,0.8129,0.8155,0.8189,0.8227,0.8254,0.8283,0.8312,0.8336,0.8372,0.8418,0.8431,0.8477,0.8515,0.8578,0.8604,0.8641,0.8639,0.8651,0.8654,0.8656,0.8656,0.8595,0.865,0.865,0.865,0.865,0.865,0,0.8176,0.8198,0.8232,0.8276,0.8306,0.8311,0.8347,0.8372,0.8411,0.8445,0.848,0.853,0.8572,0.8607,0.8652,0.8675,0.8681,0.8686,0.8685,0.869,0.8655,0.8644,0.868,0.868,0.868,0.868,0.868,0.868,0.8203,0.8247,0.8261,0.8319,0.8342,0.8384,0.8404,0.8432,0.8459,0.8513,0.8547,0.8569,0.8604,0.865,0.869,0.87,0.8715,0.8719,0.873,0.8696,0.8693,0.869,0.8679,0.8722,0.8722,0.8762,0.8762,0.8762]},{"header":{"parameterUnit":"m.s-1","parameterCategory":1,"la1":30.2991,"la2":30.254,"lo1":-89.0895,"lo2":-89.0444,"dy":0.0017,"dx":0.0017,"nx":28,"ny":28,"refTime":"2024-05-23T09:00:00:Z","depth":0,"parameterNumber":3,"parameterNumberName":"V-component_of_WINDS"},"data":[0,0,0,0,0,0,0,0,0,0,0,0,0,0,0,0,0,0,0,0,0,0,0,0,0,0,0,0,0,0,0,0,0,0,0,0,0,0,0,0,0,0,0,0,0,0,0,0,0,0,0,0,0,0,0,0,0,0,2.8148,2.8148,0,2.8216,2.8217,2.8218,2.8219,2.8218,2.8217,2.8217,2.8285,2.8288,2.829,0,0,0,0,0,0,0,0,0,0,0,0,0,2.8016,2.8018,2.8147,2.8148,2.8149,2.8216,2.8217,2.8218,2.8219,2.8218,2.8217,2.8216,2.8284,2.8287,2.8291,0,0,0,0,0,0,0,0,0,0,0,0,0,2.8077,2.8019,2.8147,2.8158,2.816,2.8216,2.8217,2.8218,2.8219,2.8218,2.8217,2.8216,2.8283,2.8287,2.8291,2.8341,0,0,2.8303,2.8305,0,0,0,0,0,0,0,0,2.8074,2.8082,2.8156,2.8157,2.8159,2.8208,2.8196,2.8259,2.822,2.8197,2.8217,2.8215,2.826,2.8266,2.8282,2.8344,2.8347,2.8303,2.8306,2.8307,2.8309,0,0,0,0,0,0,0,2.807,2.8079,2.8175,2.8157,2.8159,2.8159,2.8166,2.8208,2.8235,2.8199,2.8199,2.8207,2.8261,2.8278,2.8283,2.8348,2.8303,2.8307,2.8309,2.8311,2.8455,2.8457,0,0,0,0,0,0,2.8064,2.8076,2.8172,2.8177,2.8113,2.8162,2.817,2.8194,2.8234,2.8239,2.8208,2.8207,2.8272,2.8279,2.8286,2.8348,2.8307,2.8311,2.8313,2.8454,2.8456,2.8457,0,0,0,0,0,0,2.8061,2.8072,2.817,2.8126,2.8139,2.8166,2.8192,2.8196,2.8212,2.8242,2.8246,2.8221,2.8271,2.828,2.8328,2.835,2.8313,2.8316,2.8452,2.8455,2.8457,2.8471,0,0,0,0,0,0,2.8057,2.8071,2.8091,2.8127,2.8141,2.8211,2.8193,2.8198,2.8219,2.8219,2.8254,2.8259,2.8271,2.8322,2.8331,2.8355,2.832,2.845,2.8453,2.8456,2.8469,2.8474,2.8478,0,0,0,0,0,2.8052,2.8092,2.8092,2.8103,2.8166,2.8212,2.822,2.8233,2.8221,2.8241,2.826,2.8258,2.8346,2.8326,2.8338,2.8362,2.8449,2.8452,2.8456,2.8467,2.8473,2.8478,0,0,0,0,0,0,2.8057,2.8096,2.8097,2.8149,2.8177,2.8212,2.8238,2.8239,2.8271,2.8268,2.8283,2.8291,2.8338,2.8355,2.8333,2.8413,2.8396,2.8402,2.8401,2.8406,2.8411,2.8406,2.8323,0,0,0,0,0,2.8064,2.8098,2.8131,2.8174,2.8188,2.821,2.8231,2.8239,2.8268,2.828,2.8302,2.833,2.8364,2.8386,2.8419,2.8471,2.8479,2.8494,2.8498,2.8501,2.8506,2.8536,2.8543,2.8468,2.8468,2.8468,0,0,2.8079,2.8105,2.8125,2.8175,2.8198,2.8233,2.822,2.8258,2.8284,2.8285,2.8332,2.8349,2.8381,2.8431,2.8454,2.8447,2.8529,2.8506,2.8508,2.8511,2.854,2.8547,2.8553,2.8471,2.847,2.847,0,0,2.8124,2.8147,2.8186,2.8209,2.8244,2.8258,2.8268,2.8303,2.8314,2.8361,2.8363,2.8394,2.8452,2.8475,2.8495,2.8549,2.8549,2.8559,2.8583,2.8611,2.8617,2.8622,2.8643,2.865,2.8564,2.8564,2.8564,0,2.8138,2.8192,2.8205,2.8243,2.8265,2.8269,2.8308,2.8329,2.8373,2.8388,2.8378,2.8452,2.8474,2.853,2.8543,2.8559,2.857,2.8555,2.8615,2.8621,2.8626,2.8645,2.8653,2.8565,2.8565,2.8565,2.8565,0,2.8207,2.8244,2.8271,2.8314,2.8339,2.8377,2.8397,2.842,2.8426,2.8441,2.8489,2.8516,2.8554,2.8568,2.8573,2.8625,2.8619,2.8612,2.8596,2.8634,2.8652,2.866,2.8567,2.8566,2.8566,2.8566,0,0,2.8257,2.8308,2.8318,2.8338,2.8376,2.8405,2.8443,2.8482,2.8502,2.8531,2.8564,2.8613,2.8608,2.863,2.8638,2.8663,2.8705,2.8653,2.8654,2.8663,2.8764,2.877,2.8778,2.8705,2.8706,2.8708,2.8762,0,2.8307,2.8377,2.8391,2.845,2.8485,2.8489,2.8522,2.855,2.8565,2.8596,2.8613,2.8648,2.8638,2.8651,2.8676,2.8695,2.8726,2.8691,2.8736,2.8737,2.8728,2.8787,2.8793,2.8843,2.8769,2.877,2.8771,0,2.8375,2.8408,2.8472,2.8506,2.8521,2.8551,2.8588,2.8618,2.8649,2.8658,2.8683,2.8688,2.8728,2.8709,2.8764,2.874,2.8759,2.8771,2.8773,2.8778,2.8757,2.8795,2.8859,2.8867,2.8782,2.8781,2.8781,0,2.8406,2.8466,2.8512,2.8529,2.857,2.8591,2.8609,2.8639,2.8662,2.8693,2.8708,2.8744,2.8763,2.879,2.8805,2.879,2.8859,2.8841,2.8869,2.8868,2.8884,2.8883,2.8953,2.8895,2.8894,2.8894,2.8894,0,2.8461,2.85,2.8527,2.8555,2.8599,2.8614,2.8657,2.8674,2.8701,2.8733,2.8737,2.8767,2.8784,2.8816,2.8828,2.8872,2.8881,2.8889,2.8892,2.889,2.8889,2.8903,2.89,2.8896,2.8896,2.8895,2.8895,0,2.8504,2.8523,2.8574,2.8609,2.8619,2.865,2.868,2.8707,2.8723,2.8763,2.8773,2.8798,2.8835,2.8853,2.8899,2.8907,2.8958,2.8958,2.8948,2.8949,2.8975,2.8973,2.9058,2.907,2.9003,2.9003,2.9004,0,2.8538,2.8568,2.8607,2.8629,2.8648,2.8683,2.8707,2.8722,2.8746,2.8784,2.8807,2.8845,2.8877,2.8937,2.8959,2.8994,2.8996,2.9023,2.9001,2.8998,2.8997,2.8995,2.8999,2.9027,2.9028,2.9028,2.9029,0,2.8596,2.8605,2.8638,2.8676,2.8704,2.8734,2.8763,2.878,2.8801,2.8827,2.8867,2.8891,2.8939,2.8977,2.9014,2.9032,2.9034,2.9035,2.9044,2.9042,2.9035,2.904,2.8959,2.9033,2.9033,2.9033,2.9032,2.9032,2.8636,2.8664,2.8696,2.8733,2.8757,2.8785,2.8813,2.8832,2.8866,2.8907,2.8914,2.8956,2.8986,2.9036,2.9056,2.9088,2.9082,2.9094,2.9097,2.91,2.9102,2.9029,2.9095,2.9095,2.9095,2.9095,2.9095,0,2.8696,2.8717,2.8752,2.8793,2.8823,2.8822,2.8854,2.8879,2.8916,2.8945,2.8976,2.9021,2.9058,2.9083,2.912,2.9142,2.9144,2.9151,2.915,2.9155,2.9105,2.9095,2.9149,2.9149,2.9149,2.9149,2.9149,2.9149,2.8731,2.8777,2.879,2.8848,2.8869,2.8911,2.8929,2.8955,2.8978,2.9028,2.9059,2.9075,2.9103,2.9142,2.9176,2.9182,2.9196,2.9204,2.921,2.9164,2.9158,2.9152,2.9143,2.9207,2.9207,2.9257,2.9257,2.9258]}]]